Signal Hill, CA

7:40 AM PST on January 23, 2017 (GMT -0800)
Long Beach

Weather History for KLGB - November, 2011

Change the Weather History Date:

Thursday, November 10, 2011

  Actual Average Record
Temperature  
Mean Temperature 65 °F 63 °F  
Max Temperature 76 °F 74 °F 96 °F (1990)
Min Temperature 53 °F 52 °F 46 °F (1972)
Degree Days  
Heating Degree Days 0 3  
Month to date heating degree days 57 24  
Since 1 July heating degree days 76 45  
Cooling Degree Days 0 1  
Month to date cooling degree days 4 12  
Year to date cooling degree days 887 1116  
Growing Degree Days 15 (Base 50)    
Moisture  
Dew Point 30 °F    
Average Humidity 28    
Maximum Humidity 39    
Minimum Humidity 16    
Precipitation  
Precipitation 0.00 in 0.03 in 0.52 in (1982)
Month to date precipitation 0.38 0.26  
Year to date precipitation 7.15 9.57  
Since 1 July precipitation 1.01  
Sea Level Pressure  
Sea Level Pressure 30.09 in    
Wind  
Wind Speed 1 mph (NW)    
Max Wind Speed 9 mph    
Max Gust Speed 17 mph    
Visibility 10 miles    
Events      
T = Trace of Precipitation, MM = Missing Value Source: NWS Daily Summary

Daily Weather History Graph

Daily Weather History Graph

Search for Another Location

Airport or City:

Trip Planner

Search our weather history database for the weather conditions in past years. The results will help you decide how hot, cold, wet, or windy it might be!

Date:

Astronomy

Nov. 10, 2011 Rise Set
Actual Time 6:19 AM PST 4:52 PM PST
Civil Twilight 5:53 AM PST 5:18 PM PST
Nautical Twilight 5:23 AM PST 5:48 PM PST
Astronomical Twilight 4:54 AM PST 6:18 PM PST
Moon 4:46 PM PST (11/10) 6:14 AM PST (11/10)
Length of Visible Light 11h 25m
Length of Day
10h 32m
Full, 100% of the Moon is Illuminated
Nov 10
Full
Nov 10
Full
Nov 18
Last Quarter
Nov 24
New
Dec 2
First Quarter

Hourly Weather History & Observations

Time (PST) Temp. Dew Point Humidity Pressure Visibility Wind Dir Wind Speed Gust Speed Precip Events Conditions
12:53 AM 62.1 °F 21.0 °F 21% 30.16 in 10.0 mi NW 5.8 mph - N/A   Clear
1:53 AM 57.0 °F 27.0 °F 32% 30.15 in 10.0 mi NW 3.5 mph - N/A   Clear
2:53 AM 55.9 °F 27.0 °F 33% 30.13 in 10.0 mi Calm Calm - N/A   Clear
3:53 AM 57.0 °F 25.0 °F 29% 30.13 in 10.0 mi Calm Calm - N/A   Clear
4:53 AM 57.2 °F 26.6 °F 31% 30.14 in 10.0 mi WNW 3.5 mph - N/A   Clear
5:53 AM 55.9 °F 27.0 °F 33% 30.14 in 10.0 mi WNW 3.5 mph - N/A   Clear
6:53 AM 55.0 °F 27.0 °F 34% 30.15 in 10.0 mi NW 3.5 mph - N/A   Mostly Cloudy
7:53 AM 60.1 °F 30.0 °F 32% 30.16 in 10.0 mi Calm Calm - N/A   Mostly Cloudy
8:53 AM 66.0 °F 28.9 °F 25% 30.15 in 10.0 mi NNW 3.5 mph - N/A   Clear
9:53 AM 71.1 °F 27.0 °F 19% 30.14 in 10.0 mi Calm Calm - N/A   Clear
10:53 AM 73.0 °F 25.0 °F 17% 30.14 in 10.0 mi NNW 3.5 mph - N/A   Mostly Cloudy
11:53 AM 75.9 °F 27.0 °F 16% 30.11 in 10.0 mi Calm Calm - N/A   Clear
12:53 PM 75.2 °F 26.6 °F 17% 30.08 in 10.0 mi Calm Calm - N/A   Overcast
1:53 PM 75.9 °F 26.1 °F 16% 30.05 in 10.0 mi Calm Calm - N/A   Overcast
2:53 PM 75.0 °F 28.0 °F 18% 30.04 in 10.0 mi Calm Calm - N/A   Overcast
3:53 PM 73.0 °F 35.1 °F 25% 30.02 in 10.0 mi Calm Calm - N/A   Overcast
4:53 PM 70.0 °F 32.0 °F 25% 30.01 in 10.0 mi Calm Calm - N/A   Overcast
5:53 PM 66.9 °F 34.0 °F 30% 30.01 in 10.0 mi Calm Calm - N/A   Clear
7:53 PM 64.9 °F 36.0 °F 34% 30.02 in 10.0 mi Calm Calm - N/A   Clear
8:53 PM 62.1 °F 37.0 °F 39% 30.02 in 10.0 mi NW 4.6 mph - N/A   Clear
9:53 PM 63.0 °F 36.0 °F 37% 30.02 in 10.0 mi Calm Calm - N/A   Clear
10:53 PM 62.1 °F 36.0 °F 38% 30.00 in 10.0 mi Calm Calm - N/A   Clear
11:53 PM 60.1 °F 39.0 °F 46% 30.00 in 10.0 mi Calm Calm - N/A   Clear